TimeCET,TemperatureF,Dew PointF,Humidity,Sea Level PressureIn,VisibilityMPH,Wind Direction,Wind SpeedMPH,Gust SpeedMPH,PrecipitationIn,Events,Conditions,WindDirDegrees,DateUTC
12:55 AM,30.2,26.6,86,29.80,-9999.0,ESE,10.4,-,N/A,Fog,Light Freezing Fog,120,2014-02-03 23:55:00
1:00 AM,31,28,81,,0,ESE,10.4,,,Snow,Snow,120,2014-02-04 00:00:00
3:55 AM,30.2,26.6,86,29.80,-9999.0,ESE,10.4,-,N/A,Fog,Light Freezing Fog,120,2014-02-04 02:55:00
4:00 AM,30,27,85,,0,ESE,10.4,,,Snow,Snow,120,2014-02-04 03:00:00
4:55 AM,28.4,26.6,93,29.80,-9999.0,SE,9.2,-,N/A,Fog,Light Freezing Fog,130,2014-02-04 03:55:00
5:55 AM,28.4,24.8,86,29.77,-9999.0,SE,8.1,-,N/A,Fog,Light Freezing Fog,130,2014-02-04 04:55:00
6:55 AM,28.4,26.6,93,29.77,-9999.0,ESE,6.9,-,N/A,Fog,Light Freezing Fog,120,2014-02-04 05:55:00
7:00 AM,29,26,82,,0,ESE,6.9,,,Snow,Snow,120,2014-02-04 06:00:00
7:55 AM,28.4,24.8,86,29.80,0.0,ESE,6.9,-,N/A,Fog-Snow,Snow,110,2014-02-04 06:55:00
8:55 AM,28.4,24.8,86,29.80,-9999.0,ESE,8.1,-,N/A,Fog,Light Freezing Fog,120,2014-02-04 07:55:00
9:55 AM,28.4,24.8,86,29.80,-9999.0,ESE,8.1,-,N/A,Fog,Light Freezing Fog,110,2014-02-04 08:55:00
10:00 AM,29,26,81,,0,ESE,8.1,,,Snow,Snow,110,2014-02-04 09:00:00
10:55 AM,30.2,26.6,86,29.80,-9999.0,ESE,6.9,-,N/A,Fog,Light Freezing Fog,120,2014-02-04 09:55:00
11:55 AM,30.2,26.6,86,29.80,-9999.0,SSE,10.4,-,N/A,Fog,Light Freezing Fog,160,2014-02-04 10:55:00
12:55 PM,30.2,26.6,86,29.80,-9999.0,ESE,8.1,-,N/A,Fog,Light Freezing Fog,120,2014-02-04 11:55:00
1:00 PM,29,26,84,,0,ESE,8.1,,,Snow,Snow,120,2014-02-04 12:00:00
1:55 PM,30.2,26.6,86,29.80,-9999.0,ESE,11.5,-,N/A,Fog,Light Freezing Fog,120,2014-02-04 12:55:00
2:55 PM,28.4,26.6,93,29.80,-9999.0,SE,6.9,-,N/A,Fog,Light Freezing Fog,130,2014-02-04 13:55:00
3:55 PM,30.2,26.6,86,29.77,-9999.0,SE,9.2,21.9,N/A,Fog,Light Freezing Fog,140,2014-02-04 14:55:00
4:00 PM,29,26,86,,0,SE,9.2,,,Snow,Snow,140,2014-02-04 15:00:00
4:55 PM,28.4,26.6,93,29.77,-9999.0,SSE,6.9,-,N/A,Fog,Light Freezing Fog,160,2014-02-04 15:55:00
5:55 PM,28.4,26.6,93,29.80,-9999.0,SE,9.2,-,N/A,Fog,Light Freezing Fog,140,2014-02-04 16:55:00
6:55 PM,28.4,26.6,93,29.80,-9999.0,SE,8.1,-,N/A,Fog,Light Freezing Fog,140,2014-02-04 17:55:00
7:00 PM,29,26,82,,0,SE,8.1,,,Snow,Snow,140,2014-02-04 18:00:00
9:55 PM,28.4,26.6,93,29.80,-9999.0,SSE,8.1,-,N/A,Fog,Light Freezing Fog,160,2014-02-04 20:55:00
10:00 PM,29,26,84,,0,SSE,8.1,,,Snow,Light Snow,160,2014-02-04 21:00:00